Content
SEND FEEDBACK

Daily
Averages
Monthly
Summary
United States of America

GREENFIELD, MASSACHUSETTS


Home > North America > United States > Massachusetts
Elevation: 190 feet     Latitude: 42 37N     Longitude: 072 33W

WEATHER
 
SELECT A DAY
Number of Records: 212,494;   Date Range: 7/1/96 - 8/12/14
 
SHARE

PRINT THIS DATA

[ ← Previous Day ]
WEATHER ALMANAC - MARCH 13, 2014
[ Next Day → ]
[ °C ]   °F
Weather ElementAverageHighLow
Temperature15.9 °F25 °F (12:52 am)10 °F (8:40 am)
Dewpoint6.3 °F21 °F (12:52 am)-4 °F (8:52 pm)
Humidity67.1 %85 % (12:52 am)41 % (7:52 pm)
Barometer29.41 in29.98 in (11:52 pm)29.08 in (12:52 am)
Wind Speed18.3 mph25.3 mph (7:22 am)
Wind Gust36.8 mph (12:18 pm)
Weather ElementAverage
Visibility4.3 mi
Wind DirectionNW (311.6 °)

Weather ElementTotal
Precipitation0.01 in
Heating Degree Days47.5 (Base 65)
Averaged from 55 records on March 13, 2014
WEATHER CONDITIONS BREAKOUT
WIND DIRECTION BREAKOUT
WEATHER BY HOUR - MARCH 13, 2014
[ °C ]   °F
Local TimeTemperatureDewpointHumidityBarometerVisibilityWind DirectionWind SpeedGust SpeedPrecipitationEventsConditions
12:52 AM25.0 °F21.0 °F85 %29.08 in8.0 miNorth (350°)13.8 mph24.2 mph0.01 inOvercast
1:52 AM21.9 °F17.1 °F82 %29.16 in4.0 miNW (320°)18.4 mph29.9 mph0.00 inOvercast
2:12 AM21.9 °F17.1 °F82 %29.15 in2.0 miNW (320°)13.8 mph0.00 inSnowLight Snow
2:35 AM21.0 °F16.0 °F81 %29.14 in1.8 miNW (320°)16.1 mph26.5 mph0.00 inSnowLight Snow
2:44 AM21.0 °F16.0 °F81 %29.13 in1.0 miNNW (330°)13.8 mph27.6 mph0.00 inSnowLight Snow
2:52 AM21.0 °F16.0 °F81 %29.15 in1.0 miNNW (330°)18.4 mph26.5 mph0.00 inSnowLight Snow
2:58 AM21.0 °F16.0 °F81 %29.13 in1.5 miNNW (330°)16.1 mph26.5 mph0.00 inSnowLight Snow
3:11 AM19.9 °F15.1 °F81 %29.14 in2.0 miNNW (340°)16.1 mph28.8 mph0.00 inSnowLight Snow
3:24 AM19.9 °F14.0 °F78 %29.16 in4.0 miNNW (330°)17.3 mph26.5 mph0.00 inSnowLight Snow
3:38 AM19.9 °F14.0 °F78 %29.17 in3.0 miNW (320°)16.1 mph24.2 mph0.00 inSnowLight Snow
3:47 AM19.4 °F14.0 °F80 %29.17 in2.5 miNW (320°)15.0 mph0.00 inSnowLight Snow
3:52 AM19.0 °F14.0 °F81 %29.18 in2.5 miNW (320°)17.3 mph25.3 mph0.00 inSnowLight Snow
4:07 AM18.0 °F12.0 °F78 %29.17 in4.0 miNW (320°)16.1 mph26.5 mph0.00 inSnowLight Snow
4:20 AM18.0 °F10.9 °F74 %29.18 in7.0 miNW (310°)19.6 mph26.5 mph0.00 inOvercast
4:52 AM16.0 °F9.0 °F74 %29.23 in9.0 miNW (320°)16.1 mph21.9 mph0.00 inOvercast
5:11 AM16.0 °F8.1 °F71 %29.22 in10.0 miNNW (330°)18.4 mph29.9 mph0.00 inOvercast
5:25 AM15.1 °F8.1 °F74 %29.23 in10.0 miNW (320°)19.6 mph26.5 mph0.00 inOvercast
5:52 AM15.1 °F7.0 °F70 %29.26 in10.0 miNW (320°)17.3 mph25.3 mph0.00 inOvercast
6:52 AM12.9 °F3.9 °F67 %29.31 in4.0 miNW (320°)17.3 mph28.8 mph0.00 inSnowLight Snow
7:15 AM12.0 °F3.9 °F70 %29.31 in2.0 miNNW (330°)18.4 mph27.6 mph0.00 inSnowLight Snow
7:22 AM12.0 °F3.9 °F70 %29.32 in1.5 miNW (310°)25.3 mph35.7 mph0.00 inSnowLight Snow
7:39 AM12.0 °F3.9 °F70 %29.32 in1.0 miNNW (330°)21.9 mph31.1 mph0.00 inSnowLight Snow
7:44 AM12.0 °F3.9 °F70 %29.33 in1.2 miNW (320°)19.6 mph28.8 mph0.00 inSnowLight Snow
7:52 AM12.0 °F3.9 °F70 %29.36 in1.0 miNNW (330°)20.7 mph33.4 mph0.00 inSnowLight Snow
8:05 AM10.9 °F3.9 °F73 %29.34 in0.5 miNW (320°)23.0 mph34.5 mph0.00 inSnowSnow
8:40 AM10.0 °F5.0 °F80 %29.36 in0.5 miNW (320°)19.6 mph27.6 mph0.00 inSnowSnow
8:52 AM10.0 °F5.0 °F80 %29.40 in0.2 miNW (320°)18.4 mph28.8 mph0.00 inSnowHeavy Snow
9:10 AM10.0 °F3.0 °F73 %29.39 in0.8 miNW (320°)25.3 mph33.4 mph0.00 inSnowLight Snow
9:52 AM10.0 °F3.0 °F73 %29.44 in0.8 miNW (310°)18.4 mph28.8 mph0.00 inSnowLight Snow
10:52 AM12.0 °F5.0 °F73 %29.47 in1.0 miNW (310°)16.1 mph31.1 mph0.00 inSnowLight Snow
11:06 AM12.9 °F3.9 °F67 %29.45 in1.5 miNNW (330°)20.7 mph34.5 mph0.00 inSnowLight Snow
11:09 AM12.9 °F3.9 °F67 %29.45 in1.2 miNNW (330°)23.0 mph34.5 mph0.00 inSnowLight Snow
11:32 AM14.0 °F3.0 °F62 %29.46 in2.0 miNNW (330°)21.9 mph35.7 mph0.00 inSnowLight Snow
11:44 AM14.0 °F3.9 °F64 %29.46 in2.0 miNW (320°)21.9 mph28.8 mph0.00 inSnowLight Snow
11:52 AM14.0 °F3.9 °F64 %29.49 in2.5 miNW (320°)18.4 mph28.8 mph0.00 inSnowLight Snow
11:58 AM14.0 °F3.9 °F64 %29.47 in1.8 miNW (320°)24.2 mph32.2 mph0.00 inSnowLight Snow
12:18 PM15.1 °F3.9 °F61 %29.48 in1.2 miNW (310°)24.2 mph36.8 mph0.00 inSnowLight Snow
12:22 PM14.0 °F3.9 °F64 %29.48 in1.2 miNNW (340°)21.9 mph34.5 mph0.00 inSnowLight Snow
12:26 PM14.0 °F3.9 °F64 %29.48 in1.5 miNNW (330°)20.7 mph32.2 mph0.00 inSnowLight Snow
12:33 PM14.0 °F3.9 °F64 %29.49 in3.0 miWNW (300°)18.4 mph28.8 mph0.00 inSnowLight Snow
12:47 PM15.8 °F3.2 °F58 %29.50 in4.0 miNNW (330°)15.0 mph27.6 mph0.00 inOvercast
12:52 PM15.1 °F5.0 °F64 %29.52 in4.0 miNW (310°)18.4 mph25.3 mph0.00 inOvercast
1:06 PM16.0 °F3.9 °F59 %29.50 in2.5 miNW (320°)25.3 mph34.5 mph0.00 inSnowLight Snow
1:17 PM16.0 °F3.0 °F57 %29.51 in5.0 miNW (320°)21.9 mph32.2 mph0.00 inOvercast
1:52 PM18.0 °F3.0 °F52 %29.54 in4.0 miNW (320°)24.2 mph36.8 mph0.00 inOvercast
2:52 PM19.0 °F3.0 °F50 %29.56 in10.0 miNW (310°)25.3 mph35.7 mph0.00 inOvercast
3:52 PM19.0 °F3.9 °F52 %29.60 in10.0 miNNW (340°)18.4 mph27.6 mphMostly Cloudy
4:52 PM19.0 °F3.0 °F50 %29.64 in10.0 miNNW (340°)18.4 mph28.8 mphOvercast
5:52 PM18.0 °F3.9 °F54 %29.69 in10.0 miNNW (330°)17.3 mph29.9 mphOvercast
6:52 PM17.1 °F1.9 °F52 %29.75 in10.0 miNNW (330°)13.8 mph24.2 mphPartly Cloudy
7:52 PM17.1 °F-2.9 °F41 %29.81 in10.0 miNW (320°)19.6 mph29.9 mphClear
8:52 PM16.0 °F-4.0 °F41 %29.86 in10.0 miNW (320°)11.5 mphClear
9:52 PM15.1 °F-4.0 °F43 %29.92 in10.0 miNNW (330°)8.1 mphClear
10:52 PM14.0 °F-2.9 °F47 %29.95 in10.0 miVariable5.8 mphClear
11:52 PM12.9 °F-4.0 °F47 %29.98 in10.0 miVariable3.5 mphClear
Hourly data recorded from KORE, located miles away from Greenfield, Massachusetts







STORIES FROM OUR PARTNERS